Regional Weather Roundup
Issued by NWS

Home | Current Version | Previous Version | Graphics & Text | Print | Product List | Glossary On
Versions: 1 2 3 4 5 6 7 8 9 10 11 12 13 14 15 16 17 18 19 20 21 22 23 24 25 26 27 28 29 30 31 32 33 34 35 36 37 38 39 40 41 42 43 44 45 46 47 48 49 50
000
ASUS45 KCYS 251910
RWRWY

WYOMING REGIONAL WEATHER ROUNDUP
NATIONAL WEATHER SERVICE CHEYENNE WY
100 PM MDT SAT APR 25 2015

NOTE:  "FAIR" INDICATES FEW OR NO CLOUDS BELOW 12,000 FEET
WITH NO SIGNIFICANT WEATHER AND/OR OBSTRUCTIONS TO VISIBILITY.

WYZ001-252000-
YELLOWSTONE NATIONAL PARK

CITY           SKY/WX    TMP DP  RH WIND       PRES   REMARKS
LK YELLOWSTONE   N/A     33  23  66 CALM      29.82R
W YELLOWSTONE  NOT AVBL

$$
WYZ002>013-054>058-071-098>099-252000-
NORTHERN WYOMING

CITY           SKY/WX    TMP DP  RH WIND       PRES   REMARKS
JACKSON        PTSUNNY   43  21  42 SW9G18    29.81S
CODY           CLOUDY    43  37  81 N13       29.77S
GREYBULL       CLOUDY    50  38  63 N13       29.75S
WORLAND        CLOUDY    46  37  71 NW6       29.77R
SHERIDAN       CLOUDY    43  35  73 N16       29.79R
BUFFALO        CLOUDY    39  33  79 N22G33    29.76R WCI  29
GILLETTE       CLOUDY    46  41  82 NW17      29.72R
HULETT         CLOUDY    63  39  42 W9        29.67S
NEWCASTLE      FAIR      61  37  41 S12       29.68F

$$
WYZ014>020-022>026-101>103-252000-
CENTRAL WYOMING

CITY           SKY/WX    TMP DP  RH WIND       PRES   REMARKS
BIG PINEY      FAIR      47  24  40 W12       29.81S
PINEDALE       MOCLDY    43  28  56 W10       29.82S
DUBOIS         FAIR      45  18  33 W24       29.74F
LANDER         FAIR      57  32  38 VRB3      29.67F
RIVERTON       FAIR      54  35  48 NE14G20   29.70F
CASPER         FAIR      57  29  34 SW25G33   29.71S
DOUGLAS        FAIR      61  31  32 W18G25    29.70F

$$
WYZ021-027>030-104>119-252000-
SOUTHERN WYOMING

CITY           SKY/WX    TMP DP  RH WIND       PRES   REMARKS
EVANSTON       PTSUNNY   48  28  46 SW10G20   29.80F
KEMMERER       CLOUDY    43  28  56 W13       29.82F
FORT BRIDGER   MOCLDY    52  23  32 W13G22    29.83F
ROCK SPRINGS   FAIR      48  26  42 W12       29.82S
DIXON          CLOUDY    42  37  82 SE6       29.87F
RAWLINS        CLOUDY    45  25  45 SW23G30   29.81F
SARATOGA       CLOUDY    45  30  57 W5G17     29.83F
LARAMIE        PTSUNNY   48  32  53 NW13      29.78F
CHEYENNE       FAIR      60  28  29 S10       29.74F
TORRINGTON     FAIR      65  40  39 VRB5      29.69S
PINE BLUFFS    MOCLDY    64  32  29 E7        29.72F

$$



USA.gov is the U.S. government's official web portal to all federal, state and local government web resources and services.